Location: Dumpton Point
(51.3500°N, 1.4433°E)
Time: 07:56:18
(UTC+00:00)

Envisat - Pass Details

Date: 13 December 2021
Orbit: 764 x 766 km, 98.2° (Epoch: 17 January)

Event Time Altitude Azimuth Distance (km) Brightness Sun altitude
Rises 03:16:29 0° 31° (NNE) 3,245 6.7 -41.3°
Reaches altitude 10° 03:20:42 10° 65° (ENE) 2,310 6.1 -40.7°
Maximum altitude 03:22:16 11° 83° (E) 2,215 6.0 -40.5°
Drops below altitude 10° 03:23:50 10° 101° (ESE) 2,304 6.0 -40.2°
Sets 03:28:00 0° 135° (SE) 3,222 6.6 -39.6°
